Location: Miles
(41.4492°N, 81.6087°W)
Time: 01:59:09
(UTC+00:00)

Courier 1B - Pass Details

Date: 22 September 2024
Orbit: 962 x 1208 km, 28.3° (Epoch: 05 October)

Event Time Altitude Azimuth Distance (km) Brightness Sun altitude
Rises 19:43:09 0° 254° (WSW) 3,770 11.3 37.2°
Reaches altitude 10° 19:46:17 10° 241° (WSW) 2,857 11.2 36.8°
Maximum altitude 19:51:48 25° 189° (S) 2,030 10.2 36.0°
Drops below altitude 10° 19:57:33 10° 137° (SE) 3,002 10.1 35.1°
Sets 20:00:57 0° 125° (SE) 4,001 10.6 34.6°
